Regional Weather Roundup
Issued by NWS

Home | Current Version | Previous Version | Text Only | Print | Product List | Glossary Off
Versions: 1 2 3 4 5 6 7 8 9 10 11 12 13 14 15 16 17 18 19 20 21 22 23 24 25 26 27 28 29 30 31 32 33 34 35 36 37 38 39 40 41 42 43 44 45 46 47 48 49 50

510
ASUS43 KMPX 222010
RWRMN
WEATHER ROUNDUP FOR MINNESOTA
NATIONAL WEATHER SERVICE TWIN CITIES/CHANHASSEN MN
200 PM CST SUN JAN 22 2017


NOTE: "FAIR" INDICATES FEW OR NO CLOUDS BELOW 12,000 FEET WITH NO
SIGNIFICANT WEATHER AND/OR OBSTRUCTIONS TO VISIBILITY. N/A MEANS
CURRENT SKY AND/OR WEATHER CONDITIONS ARE NOT AVAILABLE.

MNZ060>063-068>070-222100-
   Twin Cities Metro

CITY           SKY/WX    TMP DP  RH WIND       PRES   REMARKS
TWIN CITIES    CLOUDY    39  34  82 NW8       29.71S
ST PAUL        CLOUDY    40  37  89 NW7       29.72S
CRYSTAL        CLOUDY    40  34  79 W7        29.70S
BLAINE         CLOUDY    41  39  93 NW6       29.70S
LAKEVILLE        N/A     36  36 100 W6        29.71S
EDEN PRAIRIE   CLOUDY    39  35  86 W6        29.70F
SOUTH ST PAUL  CLOUDY    40  37  89 NW6       29.71R
LAKE ELMO      CLOUDY    37  37 100 NW3       29.71S
$$
MNZ001>005-007-008-013>017-022>024-027-028-222100-
   Northwest Minnesota

CITY           SKY/WX    TMP DP  RH WIND       PRES   REMARKS
BEMIDJI        CLOUDY    34  34  99 W6        29.69S WCI  29
HALLOCK        FOG       34  34 100 W5        29.71F VSB 1/4 WCI  30
ROSEAU         CLOUDY    36  30  80 CALM      29.70F
WARROAD        CLOUDY    36  30  80 SW5       29.71S
THIEF RVR FALL FOG       33  32  96 W7        29.72F VSB 1/4 WCI  27
CROOKSTON      CLOUDY    32  32 100 W3        29.74S FOG
FOSSTON        FOG       34  32  93 W5        29.71S VSB 1/4 WCI  30
DETROIT LAKES  FOG       32  32 100 NW10      29.73S VSB 1/4 WCI  24
MOORHEAD       CLOUDY    34  30  86 NW6       29.75S FOG     WCI  29
PARK RAPIDS    CLOUDY    36  32  85 NW6       29.69F
MAHNOMEN       FOG       32  32 100 W9        29.72R VSB 1/4 WCI  24
$$
MNZ006-009>011-018-025>026-222100-
   North Central Minnesota

CITY           SKY/WX    TMP DP  RH WIND       PRES   REMARKS
BAUDETTE       CLOUDY    35  33  92 CALM      29.69F
FLAG ISLAND    CLOUDY    34  32  93 S5        29.69S WCI  30
INTL FALLS     CLOUDY    38  34  85 CALM      29.68F
WASKISH        CLOUDY    36  34  93 W5        29.70S FOG
BIG FORK       CLOUDY    37  36  93 CALM      29.68S
LONGVILLE      CLOUDY    36  36 100 CALM      29.69S
GRAND RAPIDS   CLOUDY    37  35  92 NW6       29.69F
CRANE LAKE     CLOUDY    34  34 100 CALM      29.70S
ORR            RAIN      32  30  93 CALM      29.66S
COOK           LGT SNOW  34  34 100 CALM      29.68S
WALKER         CLOUDY    34  34  99 NW6       29.69F WCI  29
$$
MNZ012-019>021-037-222100-
   Northeast Minnesota

CITY           SKY/WX    TMP DP  RH WIND       PRES   REMARKS
DULUTH         LGT RAIN  36  35  96 NW6       29.65S
ELY            CLOUDY    36  34  93 CALM      29.66S FOG
HIBBING        CLOUDY    34  34 100 NW5       29.66F WCI  30
EVELETH        DRIZZLE   37  35  92 NW5       29.67F
DULUTH HARBOR  CLOUDY    37  36  93 CALM      29.69S
TWO HARBORS    CLOUDY    39  34  81 CALM      29.65S
SILVER BAY     CLOUDY    37  37 100 CALM      29.64S FOG
GRAND MARAIS     N/A     39  35  86 CALM      29.66F
G MARAIS ARPRT LGT SNOW  34  28  80 NW3       29.63F
$$
MNZ029>031-032-039>041-046>048-054>057-064-222100-
   West Central Minnesota

CITY           SKY/WX    TMP DP  RH WIND       PRES   REMARKS
FERGUS FALLS   FOG       32  32 100 W9        29.78S VSB 1/4 WCI  24
WHEATON        CLOUDY    36  36 100 W8        29.78S FOG
MORRIS         CLOUDY    32  30  93 W15       29.74S FOG     WCI  22
ALEXANDRIA     FOG       32  32 100 NW9       29.73S VSB 1/4 WCI  24
ELBOW LAKE     FOG       31  31 100 NW9       29.75R VSB 3/4 WCI  23
WADENA         FOG       34  34 100 W6        29.70F VSB 1/4 WCI  29
GLENWOOD       FOG       32  32 100 W9        29.73S VSB 1/4 WCI  24
APPLETON       CLOUDY    34  30  86 W13       29.77R FOG     WCI  25
ORTONVILLE     CLOUDY    30  28  93 CALM      29.77S FOG
MADISON        CLOUDY    34  34 100 W12       29.77S FOG     WCI  25
WILLMAR        FOG       34  34 100 W8        29.76R VSB 1   WCI  27
$$
MNZ033>034-036-042>043-049>051-058-059-222100-
   Central Minnesota

CITY           SKY/WX    TMP DP  RH WIND       PRES   REMARKS
ST CLOUD       CLOUDY    38  36  92 NW7       29.71S
SAUK CENTRE    CLOUDY    34  34 100 W6        29.72S FOG     WCI  29
PAYNESVILLE    CLOUDY    35  35 100 W6        29.73S FOG     WCI  30
AITKIN         CLOUDY    39  34  81 CALM      29.68S
PINE RIVER     CLOUDY    36  36 100 W5        29.73S
BRAINERD       CLOUDY    36  35  96 NW6       29.70S
STAPLES        CLOUDY    36  36 100 W3        29.70F FOG
LONG PRAIRIE   CLOUDY    34  34 100 SW3       29.72R FOG
LITTLE FALLS     N/A    N/A N/A N/A NW3         N/A
LITCHFIELD     CLOUDY    37  37 100 W5        29.73S FOG
BUFFALO        CLOUDY    37  35  92 W3        29.72S
MAPLE LAKE     CLOUDY    38  38 100 W3        29.73S
HUTCHINSON     CLOUDY    37  37 100 W7        29.74S FOG
$$
MNZ037-044-045-052-053-222100-
   East Central Minnesota

CITY           SKY/WX    TMP DP  RH WIND       PRES   REMARKS
PRINCETON      CLOUDY    39  37  93 W3        29.71S
MORA           CLOUDY    36  34  93 NW3       29.71S
CAMBRIDGE      CLOUDY    39  39 100 W3        29.69S FOG
RUSH CITY      CLOUDY    37  36  93 CALM      29.70S
MOOSE LAKE     CLOUDY    37  34  87 NW6       29.66S
HINCKLEY       CLOUDY    37  36  93 W3        29.69S
CLOQUET        CLOUDY    36  36 100 NW5       29.66F
MCGREGOR       CLOUDY    36  36 100 W3        29.68S
$$
MNZ071>073-080-081-089-090-097-098-222100-
   Southwest Minnesota

CITY           SKY/WX    TMP DP  RH WIND       PRES   REMARKS
MONTEVIDEO     CLOUDY    34  34 100 NW10G16   29.78S WCI  26
GRANITE FALLS  CLOUDY    35  35 100 W12       29.78R WCI  27
CANBY          CLOUDY    33  32  94 CALM      29.78S
MARSHALL       CLOUDY    34  32  92 W14       29.77R WCI  25
REDWOOD FALLS  CLOUDY    35  33  92 NW7       29.75S FOG     WCI  29
OLIVIA         CLOUDY    34  34 100 NW9       29.74S FOG     WCI  26
PIPESTONE      FOG       30  30 100 W10       29.76S VSB 1   WCI  21
WINDOM         CLOUDY    36  36 100 NW12      29.74S FOG
WORTHINGTON    CLOUDY    35  33  92 W13       29.76R FOG     WCI  26
JACKSON        CLOUDY    34  34 100 NW12      29.75R WCI  25
TRACY          CLOUDY    37  36  95 NW9       29.76S FOG
SLAYTON        CLOUDY    35  33  94 W10       29.75F WCI  27
$$
MNZ065>067-074>077-082>085-091>093-222100-
   South Central Minnesota

CITY           SKY/WX    TMP DP  RH WIND       PRES   REMARKS
MANKATO        CLOUDY    37  35  92 NW7       29.73S
NEW ULM        CLOUDY    36  36 100 NW9       29.74S FOG
ST JAMES       CLOUDY    37  36  93 NW9       29.75S
FAIRMONT       CLOUDY    38  36  92 NW9       29.74S
GLENCOE        CLOUDY    37  37 100 W7        29.72S FOG
OWATONNA       CLOUDY    36  34  93 NW7       29.71S FOG
WASECA         CLOUDY    36  36 100 NW8       29.73S FOG
ALBERT LEA     FOG       36  36 100 NW5       29.71R VSB 1/4
$$
MNZ078>079-086>088-094>096-222100-
   Southeast Minnesota

CITY           SKY/WX    TMP DP  RH WIND       PRES   REMARKS
ROCHESTER      CLOUDY    34  34 100 NW12      29.69R FOG     WCI  25
RED WING       CLOUDY    39  36  87 NW6       29.70S
STANTON        CLOUDY    37  36  96 W6        29.70S FOG
DODGE CENTER   FOG       34  34 100 CALM      29.70R VSB 1/2
WINONA         CLOUDY    37  37 100 NW5       29.69S
AUSTIN         FOG       36  34  93 NW7       29.69S VSB 3/4
PRESTON        CLOUDY    34  33  97 NW7       29.68R FOG     WCI  28
$$
ABBREVIATIONS USED IN REMARKS
   TC - TEMPERATURES IN CELSIUS
  WCI - WIND CHILL INDEX
   HX - HEAT INDEX
  VSB - VISIBILITY
$$




USA.gov is the U.S. government's official web portal to all federal, state and local government web resources and services.